Location: Tamazert
(32.6352°N, 5.2072°W)
Time: 10:02:59
(UTC+00:00)

Courier 1B Rocket - Pass Details

Date: 07 October 2022
Orbit: 920 x 1202 km, 28.3° (Epoch: 01 December)

Event Time Altitude Azimuth Distance (km) Brightness Sun altitude
Rises 20:53:25 0° 271° (W) 3,760 8.9 -37.3°
Reaches altitude 10° 20:56:17 10° 265° (W) 2,765 8.0 -37.9°
Enters shadow 20:59:44 29° 248° (WSW) 1,686 6.5 -38.6°
